Regional Weather Roundup
Issued by NWS Upton, NY

Current Version | Previous Version | Text Only | Print | Product List | Glossary Off
Versions: 1 2 3 4 5 6 7 8 9 10 11 12 13 14 15 16 17 18 19 20 21 22 23 24 25 26 27
000 ASUS41 KOKX 260809 RWROKX REGIONAL WEATHER ROUNDUP NATIONAL WEATHER SERVICE NEW YORK NY 400 AM EDT TUE SEP 26 2017 NOTE: "FAIR" INDICATES FEW OR NO CLOUDS BELOW 12,000 FEET WITH NO SIGNIFICANT WEATHER AND/OR OBSTRUCTIONS TO VISIBILITY. NYZ071-072-176-178-NJZ106-104-260900- NEW YORK CITY METRO AREA CITY SKY/WX TMP DP RH WIND PRES REMARKS Central Park CLOUDY 70 65 84 NE3 30.06F Bronx Bot Gard N/A 66 63 88 CALM 30.06R LaGuardia APRT CLOUDY 70 67 90 E5 30.03F Kennedy INTL FOG 67 67 100 E3 30.04F VSB 1 Breezy Point N/A 66 N/A N/A NE3 N/A Newark/Liberty CLOUDY 70 67 90 CALM 30.03F Teterboro PTCLDY 68 65 90 CALM 30.02F $$ NYZ177-179-078>081-260900- LONG ISLAND NEW YORK CITY SKY/WX TMP DP RH WIND PRES REMARKS Jones Beach N/A 66 N/A N/A NE8 N/A Matinecock PT N/A 66 N/A N/A S1 N/A Farmingdale CLOUDY 67 66 97 NE6 30.03F MacArthur/ISP CLOUDY 66 66 100 CALM 30.03F Shirley CLOUDY 68 67 96 N5 30.04F FOG Mt Sinai Harb N/A N/A N/A N/A S1 N/A Westhampton FOG 66 64 93 CALM 30.05F VSB 1 East Hampton CLOUDY 64 64 100 CALM 30.03S Montauk N/A 66 66 100 CALM 30.04F $$ NYZ052-065-067-260900- HUDSON VALLEY CITY SKY/WX TMP DP RH WIND PRES REMARKS White Plains MOCLDY 67 65 93 CALM 30.04F Larchmont Harb N/A 66 N/A N/A NE3 N/A Croton On Huds N/A 68 N/A N/A MISG N/A Newburgh CLEAR 68 66 94 CALM 30.05F Montgomery CLOUDY 63 62 97 CALM 30.04S Poughkeepsie CLOUDY 66 64 93 CALM 30.02F Albany PTCLDY 68 66 93 CALM 30.04R $$ NJZ001-105-106-008-010-013-015-019>022-104-260900- NEW JERSEY CITY SKY/WX TMP DP RH WIND PRES REMARKS Newark/Liberty CLOUDY 70 67 90 CALM 30.03F Teterboro PTCLDY 68 65 90 CALM 30.02F Caldwell PTCLDY 65 64 97 CALM 30.05S Somerville NOT AVBL Linden CLOUDY 69 66 91 CALM 30.04S Perth Amboy N/A 66 N/A N/A N2 N/A Sussex MOCLDY 65 65 100 CALM 30.05S Andover N/A 65 64 97 CALM 30.06S Trenton CLOUDY 68 66 93 N6 30.03F Millville CLOUDY 69 68 96 E7 30.00S FOG Atlantic City CLOUDY 68 68 100 N6 29.99F FOG Wrightstown CLOUDY 67 66 97 NE7 29.99S Toms River LGT RAIN 67 66 97 NE8 30.02S FOG Belmar CLOUDY 66 66 100 N7 30.03F FOG $$ PAZ047>061-062-071-260900- EASTERN PENNSYLVANIA CITY SKY/WX TMP DP RH WIND PRES REMARKS Philadelphia MOCLDY 68 64 87 NE3 30.01F Allentown MOCLDY 66 63 90 CALM 30.05S Scranton PTCLDY 68 65 90 E3 30.06S $$ CTZ002-004>006-009-010-012-RIZ004-006-007-MAZ004-011-015-260900- SOUTHERN NEW ENGLAND IN CT CITY SKY/WX TMP DP RH WIND PRES REMARKS Bradley INTL PTCLDY 65 64 97 SW3 30.04S Hartford FOG 65 65 100 S3 30.04S VSB 3/4 Danbury PTCLDY 64 62 93 CALM 30.06F Wtrbury/Oxford MOCLDY 62 62 100 CALM 30.06F Norwalk Harbor N/A 68 N/A N/A E3 N/A Bridgeport CLOUDY 69 67 93 CALM 30.04F FOG Meriden FOG 63 63 100 CALM 30.04F VSB 1/4 New Haven CLOUDY 67 67 100 CALM 30.04F FOG Chester FOG 66 66 100 CALM 30.05F VSB 1 Groton CLOUDY 67 66 97 CALM 30.03S FOG Wilimantic CLOUDY 68 67 96 CALM 30.05S IN RI CITY SKY/WX TMP DP RH WIND PRES REMARKS Providence CLOUDY 69 68 96 CALM 30.04F Block Island FOG 65 65 100 N3 30.03F VSB 1/4 Westerly FOG 67 66 97 N5 30.03F VSB 1/2 IN MA CITY SKY/WX TMP DP RH WIND PRES REMARKS Boston FOG 65 65 100 CALM 30.03F VSB 1/2 Worcester CLEAR 67 62 84 NW5 30.06F Westfield CLEAR 64 64 100 CALM 30.04S Provincetown CLOUDY 63 62 97 CALM 30.03F FOG Nantucket FOG 64 64 100 CALM 30.02S VSB 1/4 $$ ANZ330-335-338-340-345-350-353-355-260900- COASTAL MARINE OBSERVATIONS STATION/POSITION TIME SKY/WX TEMP WIND PRES VSBY WAVE AIR SEA DIR/SP/G HT/PER (UTC) (F) (DEG/KT/KT) (MB) (MI) (FT/S) NY HARB ENTRANCE 0750 67 72 50/ 4/ 6 1016.1 4/11 20 S FIRE ISLAND 0650 65 69 40/ 4/ 6 1017.0 6/15 GREAT SOUTH BAY 0730 67 73 CALM N/A 23 SSW MONTAUK P 0650 64 65 1017.3 8/14 15 E BARNEGAT LI 0700 70 N/A 5/14 HUDSON CANYON 0750 66 69 60/ 10/ 12 1015.6 10/14 KINGS POINT 0724 68 72 160/ 2/ 4 1017.9 EXECUTION ROCKS 0745 69 100/ 8/ 10 N/A WESTERN LI SOUND NOT AVBL CENTRAL LI SOUND 0730 67 80/ 4/ 6 N/A 0 EASTERN LI SOUND NOT AVBL ROBBINS REEF 0736 69 50/ 2/ 3 1017.7 $$ >>>>>>>>>>>>>>>>>>>>>>>>>>>> KEY <<<<<<<<<<<<<<<<<<<<<<<<<<< > < > SKY/WX - Sky Condition/Present Weather < > TMP - Temperature in Fahrenheit < > DP - Dew Point in Fahrenheit < > RH - Relative Humidity in Percent < > WIND - Direction (from) and Speed in MPH < > PRES - Mean Sea Level Pressure (inches of Hg) < > WCI - Wind Chill Index < > VSB - VISIBILITY IN MILES < > HX - HEAT INDEX < > TC - TEMPERATURE IN CELSIUS < > VRB - VARIABLE WIND DIRECTION < > < >>>>>>>>>>>>>>>>>>>>>>>>>>>> KEY <<<<<<<<<<<<<<<<<<<<<<<<<<<

USA.gov is the U.S. government's official web portal to all federal, state and local government web resources and services.